Year,Month,Day,Hour,Minute,Value (Times are PST for temperature in C)
2015,04,10,00,00,7.40
2015,04,10,00,01,7.40
2015,04,10,00,02,7.40
2015,04,10,00,03,7.40
2015,04,10,00,04,7.40
2015,04,10,00,05,7.40
2015,04,10,00,06,7.40
2015,04,10,00,07,7.40
2015,04,10,00,08,7.40
2015,04,10,00,09,7.40
2015,04,10,00,10,7.40
2015,04,10,00,11,7.40
2015,04,10,00,12,7.50
2015,04,10,00,13,7.50
2015,04,10,00,14,7.50
2015,04,10,00,15,7.50
2015,04,10,00,16,7.50
2015,04,10,00,17,7.60
2015,04,10,00,18,7.60
2015,04,10,00,19,7.60
2015,04,10,00,20,7.60
2015,04,10,00,21,7.60
2015,04,10,00,22,7.60
2015,04,10,00,23,7.60
2015,04,10,00,24,7.70
2015,04,10,00,25,7.70
2015,04,10,00,26,7.70
2015,04,10,00,27,7.70
2015,04,10,00,28,7.70
2015,04,10,00,29,7.70
2015,04,10,00,30,7.70
2015,04,10,00,31,7.80
2015,04,10,00,32,7.80
2015,04,10,00,33,7.80
2015,04,10,00,34,7.90
2015,04,10,00,35,7.90
2015,04,10,00,36,7.90
2015,04,10,00,37,8.00
2015,04,10,00,38,8.00
2015,04,10,00,39,8.00
2015,04,10,00,40,8.10
2015,04,10,00,41,8.10
2015,04,10,00,42,8.10
2015,04,10,00,43,8.10
2015,04,10,00,44,8.10
2015,04,10,00,45,8.10
2015,04,10,00,46,8.10
2015,04,10,00,47,8.10
2015,04,10,00,48,8.20
2015,04,10,00,49,8.20
2015,04,10,00,50,8.20
2015,04,10,00,51,8.20
2015,04,10,00,52,8.30
2015,04,10,00,53,8.30
2015,04,10,00,54,8.40
2015,04,10,00,55,8.40
2015,04,10,00,56,8.40
2015,04,10,00,57,8.50
2015,04,10,00,58,8.50
2015,04,10,00,59,8.60
2015,04,10,01,00,8.60
2015,04,10,01,01,8.60
2015,04,10,01,02,8.70
2015,04,10,01,03,8.70
2015,04,10,01,04,8.70
2015,04,10,01,05,8.70
2015,04,10,01,06,8.70
2015,04,10,01,07,8.70
2015,04,10,01,08,8.70
2015,04,10,01,09,8.70
2015,04,10,01,10,8.80
2015,04,10,01,11,8.80
2015,04,10,01,12,8.80
2015,04,10,01,13,8.80
2015,04,10,01,14,8.90
2015,04,10,01,15,8.90
2015,04,10,01,16,8.90
2015,04,10,01,17,8.90
2015,04,10,01,18,9.00
2015,04,10,01,19,9.00
2015,04,10,01,20,9.10
2015,04,10,01,21,9.10
2015,04,10,01,22,9.10
2015,04,10,01,23,9.20
2015,04,10,01,24,9.20
2015,04,10,01,25,9.20
2015,04,10,01,26,9.30
2015,04,10,01,27,9.30
2015,04,10,01,28,9.40
2015,04,10,01,29,9.40
2015,04,10,01,30,9.50
2015,04,10,01,31,9.50
2015,04,10,01,32,9.60
2015,04,10,01,33,9.60
2015,04,10,01,34,9.60
2015,04,10,01,35,9.60
2015,04,10,01,36,9.60
2015,04,10,01,37,9.60
2015,04,10,01,38,9.60
2015,04,10,01,39,9.60
2015,04,10,01,40,9.70
2015,04,10,01,41,9.70
2015,04,10,01,42,9.70
2015,04,10,01,43,9.70
2015,04,10,01,44,9.70
2015,04,10,01,45,9.70
2015,04,10,01,46,9.70
2015,04,10,01,47,9.70
2015,04,10,01,48,9.70
2015,04,10,01,49,9.70
2015,04,10,01,50,9.70
2015,04,10,01,51,9.70
2015,04,10,01,52,9.70
2015,04,10,01,53,9.80
2015,04,10,01,54,9.80
2015,04,10,01,55,9.80
2015,04,10,01,56,9.80
2015,04,10,01,57,9.80
2015,04,10,01,58,9.80
2015,04,10,01,59,9.80
2015,04,10,02,00,9.80
2015,04,10,02,01,9.80
2015,04,10,02,02,9.90
2015,04,10,02,03,9.90
2015,04,10,02,04,10.00
2015,04,10,02,05,10.00
2015,04,10,02,06,10.10
2015,04,10,02,07,10.10
2015,04,10,02,08,10.10
2015,04,10,02,09,10.20
2015,04,10,02,10,10.20
2015,04,10,02,11,10.20
2015,04,10,02,12,10.20
2015,04,10,02,13,10.20
2015,04,10,02,14,10.20
2015,04,10,02,15,10.20
2015,04,10,02,16,10.20
2015,04,10,02,17,10.20
2015,04,10,02,18,10.20
2015,04,10,02,19,10.20
2015,04,10,02,20,10.20
2015,04,10,02,21,10.20
2015,04,10,02,22,10.20
2015,04,10,02,23,10.20
2015,04,10,02,24,10.20
2015,04,10,02,25,10.20
2015,04,10,02,26,10.20
2015,04,10,02,27,10.20
2015,04,10,02,28,10.20
2015,04,10,02,29,10.20
2015,04,10,02,30,10.20
2015,04,10,02,31,10.20
2015,04,10,02,32,10.20
2015,04,10,02,33,10.20
2015,04,10,02,34,10.20
2015,04,10,02,35,10.20
2015,04,10,02,36,10.20
2015,04,10,02,37,10.20
2015,04,10,02,38,10.20
2015,04,10,02,39,10.20
2015,04,10,02,40,10.20
2015,04,10,02,41,10.30
2015,04,10,02,42,10.30
2015,04,10,02,43,10.30
2015,04,10,02,44,10.30
2015,04,10,02,45,10.30
2015,04,10,02,46,10.30
2015,04,10,02,47,10.30
2015,04,10,02,48,10.30
2015,04,10,02,49,10.30
2015,04,10,02,50,10.30
2015,04,10,02,51,10.30
2015,04,10,02,52,10.30
2015,04,10,02,53,10.30
2015,04,10,02,54,10.30
2015,04,10,02,55,10.30
2015,04,10,02,56,10.30
2015,04,10,02,57,10.30
2015,04,10,02,58,10.30
2015,04,10,02,59,10.30
2015,04,10,03,00,10.30
2015,04,10,03,01,10.30
2015,04,10,03,02,10.30
2015,04,10,03,03,10.30
2015,04,10,04,02,10.50
2015,04,10,04,03,10.50
2015,04,10,04,04,10.50
2015,04,10,04,05,10.50
2015,04,10,04,06,10.50
2015,04,10,04,07,10.50
2015,04,10,04,08,10.40
2015,04,10,04,09,10.50
2015,04,10,04,10,10.50
2015,04,10,04,11,10.50
2015,04,10,04,12,10.40
2015,04,10,04,13,10.30
2015,04,10,04,14,10.30
2015,04,10,04,15,10.20
2015,04,10,04,16,10.10
2015,04,10,04,17,10.00
2015,04,10,04,18,10.00
2015,04,10,04,19,9.90
2015,04,10,04,20,9.90
2015,04,10,04,21,9.80
2015,04,10,04,22,9.80
2015,04,10,04,23,9.70
2015,04,10,04,24,9.70
2015,04,10,04,25,9.70
2015,04,10,04,26,9.70
2015,04,10,04,27,9.70
2015,04,10,04,28,9.70
2015,04,10,04,29,9.70
2015,04,10,04,30,9.70
2015,04,10,04,31,9.70
2015,04,10,04,32,9.70
2015,04,10,04,33,9.60
2015,04,10,04,34,9.60
2015,04,10,04,35,9.60
2015,04,10,04,36,9.60
2015,04,10,04,37,9.50
2015,04,10,04,38,9.40
2015,04,10,04,39,9.30
2015,04,10,04,40,9.20
2015,04,10,04,41,9.20
2015,04,10,04,42,9.10
2015,04,10,04,43,9.10
2015,04,10,04,44,9.00
2015,04,10,04,45,9.00
2015,04,10,04,46,8.90
2015,04,10,04,47,8.90
2015,04,10,04,48,8.90
2015,04,10,04,49,8.90
2015,04,10,04,50,8.90
2015,04,10,04,51,8.90
2015,04,10,04,52,8.80
2015,04,10,04,53,8.80
2015,04,10,04,54,8.80
2015,04,10,04,55,8.80
2015,04,10,04,56,8.80
2015,04,10,04,57,8.80
2015,04,10,04,58,8.80
2015,04,10,04,59,8.80
2015,04,10,05,00,8.80
2015,04,10,05,01,8.80
2015,04,10,05,02,8.70
2015,04,10,05,03,8.80
2015,04,10,05,04,8.80
2015,04,10,05,05,8.80
2015,04,10,05,06,8.90
2015,04,10,05,07,8.90
2015,04,10,05,08,8.90
2015,04,10,05,09,9.00
2015,04,10,05,10,9.00
2015,04,10,05,11,9.00
2015,04,10,05,12,8.90
2015,04,10,05,13,9.00
2015,04,10,05,14,9.00
2015,04,10,05,15,9.00
2015,04,10,05,16,9.00
2015,04,10,05,17,9.00
2015,04,10,05,18,9.00
2015,04,10,05,19,9.00
2015,04,10,05,20,9.00
2015,04,10,05,21,9.00
2015,04,10,05,22,9.00
2015,04,10,05,23,9.00
2015,04,10,05,24,9.10
2015,04,10,05,25,9.10
2015,04,10,05,26,9.10
2015,04,10,05,27,9.10
2015,04,10,05,28,9.10
2015,04,10,05,29,9.10
2015,04,10,05,30,9.20
2015,04,10,05,31,9.20
2015,04,10,05,32,9.20
2015,04,10,05,33,9.20
2015,04,10,05,34,9.20
2015,04,10,05,35,9.20
2015,04,10,05,36,9.20
2015,04,10,05,37,9.20
2015,04,10,05,38,9.30
2015,04,10,05,39,9.30
2015,04,10,05,40,9.30
2015,04,10,05,41,9.30
2015,04,10,05,42,9.30
2015,04,10,05,43,9.30
2015,04,10,05,44,9.30
2015,04,10,05,45,9.40
2015,04,10,05,46,9.40
2015,04,10,05,47,9.40
2015,04,10,05,48,9.40
2015,04,10,05,49,9.40
2015,04,10,05,50,9.40
2015,04,10,05,51,9.30
2015,04,10,05,52,9.30
2015,04,10,05,53,9.30
2015,04,10,05,54,9.30
2015,04,10,05,55,9.30
2015,04,10,05,56,9.40
2015,04,10,05,57,9.40
2015,04,10,05,58,9.40
2015,04,10,05,59,9.40
2015,04,10,06,00,9.40
2015,04,10,06,01,9.40
2015,04,10,06,02,9.40
2015,04,10,06,03,9.40
2015,04,10,06,04,9.40
2015,04,10,06,05,9.50
2015,04,10,06,06,9.50
2015,04,10,06,07,9.60
2015,04,10,06,08,9.60
2015,04,10,06,09,9.60
2015,04,10,06,10,9.60
2015,04,10,06,11,9.60
2015,04,10,06,12,9.60
2015,04,10,06,13,9.50
2015,04,10,06,14,9.50
2015,04,10,06,15,9.40
2015,04,10,06,16,9.30
2015,04,10,06,17,9.30
2015,04,10,06,18,9.30
2015,04,10,06,19,9.30
2015,04,10,06,20,9.30
2015,04,10,06,21,9.30
2015,04,10,06,22,9.20
2015,04,10,06,23,9.30
2015,04,10,06,24,9.30
2015,04,10,06,25,9.30
2015,04,10,06,26,9.30
2015,04,10,06,27,9.30
2015,04,10,06,28,9.30
2015,04,10,06,29,9.40
2015,04,10,06,30,9.40
2015,04,10,06,31,9.40
2015,04,10,06,32,9.40
2015,04,10,06,33,9.40
2015,04,10,06,34,9.50
2015,04,10,06,35,9.50
2015,04,10,06,36,9.50
2015,04,10,06,37,9.50
2015,04,10,06,38,9.60
2015,04,10,06,39,9.60
2015,04,10,06,40,9.60
2015,04,10,06,41,9.60
2015,04,10,06,42,9.60
2015,04,10,06,43,9.70
2015,04,10,06,44,9.70
2015,04,10,06,45,9.70
2015,04,10,06,46,9.80
2015,04,10,06,47,9.80
2015,04,10,06,48,9.80
2015,04,10,06,49,9.80
2015,04,10,06,50,9.80
2015,04,10,06,51,9.90
2015,04,10,06,52,9.90
2015,04,10,06,53,9.90
2015,04,10,06,54,10.00
2015,04,10,06,55,10.00
2015,04,10,06,56,10.10
2015,04,10,06,57,10.10
2015,04,10,06,58,10.10
2015,04,10,06,59,10.10
2015,04,10,07,00,10.10
2015,04,10,07,01,10.10
2015,04,10,07,02,10.10
2015,04,10,07,03,10.10
2015,04,10,07,04,10.10
2015,04,10,07,05,10.10
2015,04,10,07,06,10.10
2015,04,10,07,07,10.20
2015,04,10,07,08,10.20
2015,04,10,07,09,10.20
2015,04,10,07,10,10.20
2015,04,10,07,11,10.20
2015,04,10,07,12,10.20
2015,04,10,07,13,10.20
2015,04,10,07,14,10.20
2015,04,10,07,15,10.20
2015,04,10,07,16,10.20
2015,04,10,07,17,10.30
2015,04,10,07,18,10.30
2015,04,10,07,19,10.30
2015,04,10,07,20,10.30
2015,04,10,07,21,10.30
2015,04,10,07,22,10.30
2015,04,10,07,23,10.30
2015,04,10,07,24,10.30
2015,04,10,07,25,10.30
2015,04,10,07,26,10.30
2015,04,10,07,27,10.30
2015,04,10,07,28,10.30
2015,04,10,07,29,10.30
2015,04,10,07,30,10.30
2015,04,10,07,31,10.30
2015,04,10,07,32,10.30
2015,04,10,07,33,10.30
2015,04,10,07,34,10.30
2015,04,10,07,35,10.30
2015,04,10,07,36,10.30
2015,04,10,07,37,10.30
2015,04,10,07,38,10.30
2015,04,10,07,39,10.30
2015,04,10,07,40,10.30
2015,04,10,07,41,10.30
2015,04,10,07,42,10.30
2015,04,10,07,43,10.30
2015,04,10,07,44,10.30
2015,04,10,07,45,10.30
2015,04,10,07,46,10.30
2015,04,10,07,47,10.30
2015,04,10,07,48,10.30
2015,04,10,07,49,10.30
2015,04,10,07,50,10.30
2015,04,10,07,51,10.30
2015,04,10,07,52,10.30
2015,04,10,07,53,10.30
2015,04,10,07,54,10.30
2015,04,10,07,55,10.30
2015,04,10,07,56,10.30
2015,04,10,07,57,10.40
2015,04,10,07,58,10.40
2015,04,10,07,59,10.40
2015,04,10,08,00,10.40
2015,04,10,08,01,10.40
2015,04,10,08,02,10.40
2015,04,10,08,03,10.40
2015,04,10,08,04,10.40
2015,04,10,08,05,10.40
2015,04,10,08,06,10.40
2015,04,10,08,07,10.40
2015,04,10,08,08,10.40
2015,04,10,08,09,10.40
2015,04,10,08,10,10.40
2015,04,10,08,11,10.30
2015,04,10,08,12,10.30
2015,04,10,08,13,10.30
2015,04,10,08,14,10.30
2015,04,10,08,15,10.30
2015,04,10,08,16,10.30
2015,04,10,08,17,10.30
2015,04,10,08,18,10.30
2015,04,10,08,19,10.30
2015,04,10,08,20,10.30
2015,04,10,08,21,10.30
2015,04,10,08,22,10.30
2015,04,10,08,23,10.30
2015,04,10,08,24,10.30
2015,04,10,08,25,10.30
2015,04,10,08,26,10.30
2015,04,10,08,27,10.30
2015,04,10,08,28,10.20
2015,04,10,08,29,10.20
2015,04,10,08,30,10.20
2015,04,10,08,31,10.20
2015,04,10,08,32,10.20
2015,04,10,08,33,10.20
2015,04,10,08,34,10.20
2015,04,10,08,35,10.10
2015,04,10,08,36,10.10
2015,04,10,08,37,10.10
2015,04,10,08,38,10.10
2015,04,10,08,39,10.20
2015,04,10,08,40,10.20
2015,04,10,08,41,10.20
2015,04,10,08,42,10.20
2015,04,10,08,43,10.20
2015,04,10,08,44,10.20
2015,04,10,08,45,10.20
2015,04,10,08,46,10.20
2015,04,10,08,47,10.30
2015,04,10,08,48,10.30
2015,04,10,08,49,10.30
2015,04,10,08,50,10.30
2015,04,10,08,51,10.30
2015,04,10,08,52,10.30
2015,04,10,08,53,10.30
2015,04,10,08,54,10.30
2015,04,10,08,55,10.30
2015,04,10,08,56,10.30
2015,04,10,08,57,10.30
2015,04,10,08,58,10.30
2015,04,10,08,59,10.30
2015,04,10,09,00,10.30
2015,04,10,09,01,10.30
2015,04,10,09,02,10.30
2015,04,10,09,03,10.30
2015,04,10,09,04,10.30
2015,04,10,09,05,10.30
2015,04,10,09,06,10.30
2015,04,10,09,07,10.30
2015,04,10,09,08,10.40
2015,04,10,09,09,10.40
2015,04,10,09,10,10.40
2015,04,10,09,11,10.40
2015,04,10,09,12,10.40
2015,04,10,09,13,10.40
2015,04,10,09,14,10.40
2015,04,10,09,15,10.40
2015,04,10,09,16,10.50
2015,04,10,09,17,10.50
2015,04,10,09,18,10.50
2015,04,10,09,19,10.50
2015,04,10,09,20,10.60
2015,04,10,09,21,10.60
2015,04,10,09,22,10.60
2015,04,10,09,23,10.60
2015,04,10,09,24,10.60
2015,04,10,09,25,10.60
2015,04,10,09,26,10.60
2015,04,10,09,27,10.60
2015,04,10,09,28,10.70
2015,04,10,09,29,10.70
2015,04,10,09,30,10.70
2015,04,10,09,31,10.70
2015,04,10,09,32,10.70
2015,04,10,09,33,10.70
2015,04,10,09,34,10.70
2015,04,10,09,35,10.70
2015,04,10,09,36,10.70
2015,04,10,09,37,10.80
2015,04,10,09,38,10.80
2015,04,10,09,39,10.80
2015,04,10,09,40,10.80
2015,04,10,09,41,10.80
2015,04,10,09,42,10.80
2015,04,10,09,43,10.80
2015,04,10,09,44,10.80
2015,04,10,09,45,10.80
2015,04,10,09,46,10.80
2015,04,10,09,47,10.80
2015,04,10,09,48,10.90
2015,04,10,09,49,10.90
2015,04,10,09,50,10.90
2015,04,10,09,51,10.90
2015,04,10,09,52,10.90
2015,04,10,09,53,10.80
2015,04,10,09,54,10.80
2015,04,10,09,55,10.80
2015,04,10,09,56,10.80
2015,04,10,09,57,10.80
2015,04,10,09,58,10.80
2015,04,10,09,59,10.90
2015,04,10,10,00,10.90
2015,04,10,10,01,10.90
2015,04,10,10,02,10.90
2015,04,10,10,03,10.90
2015,04,10,10,04,10.90
2015,04,10,10,05,10.90
2015,04,10,10,06,10.90
2015,04,10,10,07,10.90
2015,04,10,10,08,10.90
2015,04,10,10,09,10.80
2015,04,10,10,10,10.80
2015,04,10,10,11,10.80
2015,04,10,10,12,10.80
2015,04,10,10,13,10.80
2015,04,10,10,14,10.80
2015,04,10,10,15,10.80
2015,04,10,10,16,10.80
2015,04,10,10,17,10.80
2015,04,10,10,18,10.80
2015,04,10,10,19,10.80
2015,04,10,10,20,10.80
2015,04,10,10,21,10.80
2015,04,10,10,22,10.80
2015,04,10,10,23,10.80
2015,04,10,10,24,10.90
2015,04,10,10,25,10.90
2015,04,10,10,26,10.90
2015,04,10,10,27,10.90
2015,04,10,10,28,10.90
2015,04,10,10,29,10.90
2015,04,10,10,30,10.90
2015,04,10,10,31,10.90
2015,04,10,10,32,10.90
2015,04,10,10,33,10.90
2015,04,10,10,34,10.90
2015,04,10,10,35,10.90
2015,04,10,10,36,10.90
2015,04,10,10,37,10.90
2015,04,10,10,38,10.90
2015,04,10,10,39,10.90
2015,04,10,10,40,10.90
2015,04,10,10,41,10.90
2015,04,10,10,42,10.90
2015,04,10,10,43,10.90
2015,04,10,10,44,10.90
2015,04,10,10,45,10.90
2015,04,10,10,46,10.90
2015,04,10,10,47,10.90
2015,04,10,10,48,10.90
2015,04,10,10,49,10.90
2015,04,10,10,50,10.90
2015,04,10,10,51,10.90
2015,04,10,10,52,10.90
2015,04,10,10,53,10.90
2015,04,10,10,54,10.90
2015,04,10,10,55,10.90
2015,04,10,10,56,10.90
2015,04,10,10,57,10.90
2015,04,10,10,58,10.90
2015,04,10,10,59,10.90
2015,04,10,11,00,10.90
2015,04,10,11,01,10.80
2015,04,10,11,02,10.80
2015,04,10,11,03,10.80
2015,04,10,11,04,10.70
2015,04,10,11,05,10.70
2015,04,10,11,06,10.70
2015,04,10,11,07,10.70
2015,04,10,11,08,10.70
2015,04,10,11,09,10.70
2015,04,10,11,10,10.70
2015,04,10,11,11,10.70
2015,04,10,11,12,10.70
2015,04,10,11,13,10.70
2015,04,10,11,14,10.70
2015,04,10,11,15,10.70
2015,04,10,11,16,10.70
2015,04,10,11,17,10.70
2015,04,10,11,18,10.70
2015,04,10,11,19,10.70
2015,04,10,11,20,10.70
2015,04,10,11,21,10.70
2015,04,10,11,22,10.70
2015,04,10,11,23,10.70
2015,04,10,11,24,10.70
2015,04,10,11,25,10.80
2015,04,10,11,26,10.80
2015,04,10,11,27,10.80
2015,04,10,11,28,10.80
2015,04,10,11,29,10.90
2015,04,10,11,30,10.90
2015,04,10,11,31,10.90
2015,04,10,11,32,10.90
2015,04,10,11,33,10.90
2015,04,10,11,34,10.90
2015,04,10,11,35,10.90
2015,04,10,11,36,10.90
2015,04,10,11,37,11.00
2015,04,10,11,38,11.00
2015,04,10,11,39,11.00
2015,04,10,11,40,11.00
2015,04,10,11,41,11.00
2015,04,10,11,42,11.00
2015,04,10,11,43,10.90
2015,04,10,11,44,10.90
2015,04,10,11,45,10.90
2015,04,10,11,46,10.90
2015,04,10,11,47,10.90
2015,04,10,11,48,10.90
2015,04,10,11,49,10.90
2015,04,10,11,50,10.90
2015,04,10,11,51,10.90
2015,04,10,11,52,10.90
2015,04,10,11,53,10.90
2015,04,10,11,54,10.90
2015,04,10,11,55,10.90
2015,04,10,11,56,10.80
2015,04,10,11,57,10.80
2015,04,10,11,58,10.80
2015,04,10,11,59,10.80
2015,04,10,12,00,10.80
2015,04,10,12,01,10.80
2015,04,10,12,02,10.80
2015,04,10,12,03,10.80
2015,04,10,12,04,10.80
2015,04,10,12,05,10.80
2015,04,10,12,06,10.90
2015,04,10,12,07,10.90
2015,04,10,12,08,10.90
2015,04,10,12,09,10.90
2015,04,10,12,10,10.90
2015,04,10,12,11,10.90
2015,04,10,12,12,10.80
2015,04,10,12,13,10.80
2015,04,10,12,14,10.80
2015,04,10,12,15,10.80
2015,04,10,12,16,10.70
2015,04,10,12,17,10.70
2015,04,10,12,18,10.70
2015,04,10,12,19,10.70
2015,04,10,12,20,10.60
2015,04,10,12,21,10.60
2015,04,10,12,22,10.60
2015,04,10,12,23,10.60
2015,04,10,12,24,10.60
2015,04,10,12,25,10.60
2015,04,10,12,26,10.60
2015,04,10,12,27,10.50
2015,04,10,12,28,10.50
2015,04,10,12,29,10.50
2015,04,10,12,30,10.40
2015,04,10,12,31,10.40
2015,04,10,12,32,10.40
2015,04,10,12,33,10.40
2015,04,10,12,34,10.40
2015,04,10,12,35,10.40
2015,04,10,12,36,10.40
2015,04,10,12,37,10.30
2015,04,10,12,38,10.40
2015,04,10,12,39,10.40
2015,04,10,12,40,10.40
2015,04,10,12,41,10.40
2015,04,10,12,42,10.40
2015,04,10,12,43,10.40
2015,04,10,12,44,10.30
2015,04,10,12,45,10.30
2015,04,10,12,46,10.30
2015,04,10,12,47,10.30
2015,04,10,12,48,10.20
2015,04,10,12,49,10.20
2015,04,10,12,50,10.20
2015,04,10,12,51,10.20
2015,04,10,12,52,10.10
2015,04,10,12,53,10.10
2015,04,10,12,54,10.10
2015,04,10,12,55,10.10
2015,04,10,12,56,10.10
2015,04,10,12,57,10.10
2015,04,10,12,58,10.10
2015,04,10,12,59,10.00
2015,04,10,13,00,10.00
2015,04,10,13,01,10.00
2015,04,10,13,02,10.00
2015,04,10,13,03,10.00
2015,04,10,13,04,10.00
2015,04,10,13,05,10.00
2015,04,10,13,06,10.00
2015,04,10,13,07,10.00
2015,04,10,13,08,10.00
2015,04,10,13,09,10.00
2015,04,10,13,10,10.00
2015,04,10,13,11,10.00
2015,04,10,13,12,10.00
2015,04,10,13,13,10.00
2015,04,10,13,14,10.00
2015,04,10,13,15,10.00
2015,04,10,13,16,10.00
2015,04,10,13,17,9.90
2015,04,10,13,18,9.90
2015,04,10,13,19,9.90
2015,04,10,13,20,9.90
2015,04,10,13,21,9.90
2015,04,10,13,22,9.90
2015,04,10,13,23,9.90
2015,04,10,13,24,9.80
2015,04,10,13,25,9.80
2015,04,10,13,26,9.80
2015,04,10,13,27,9.80
2015,04,10,13,28,9.80
2015,04,10,13,29,9.80
2015,04,10,13,30,9.80
2015,04,10,13,31,9.80
2015,04,10,13,32,9.80
2015,04,10,13,33,9.80
2015,04,10,13,34,9.70
2015,04,10,13,35,9.70
2015,04,10,13,36,9.70
2015,04,10,13,37,9.70
2015,04,10,13,38,9.70
2015,04,10,13,39,9.60
2015,04,10,13,40,9.60
2015,04,10,13,41,9.60
2015,04,10,13,42,9.50
2015,04,10,13,43,9.50
2015,04,10,13,44,9.50
2015,04,10,13,45,9.50
2015,04,10,13,46,9.40
2015,04,10,13,47,9.40
2015,04,10,13,48,9.40
2015,04,10,13,49,9.40
2015,04,10,13,50,9.40
2015,04,10,13,51,9.40
2015,04,10,13,52,9.40
2015,04,10,13,53,9.40
2015,04,10,13,54,9.40
2015,04,10,13,55,9.40
2015,04,10,13,56,9.40
2015,04,10,13,57,9.40
2015,04,10,13,58,9.40
2015,04,10,13,59,9.40
2015,04,10,14,00,9.50
2015,04,10,14,01,9.50
2015,04,10,14,02,9.50
2015,04,10,14,03,9.50
2015,04,10,14,04,9.50
2015,04,10,14,05,9.50
2015,04,10,14,06,9.50
2015,04,10,14,07,9.60
2015,04,10,14,08,9.60
2015,04,10,14,09,9.60
2015,04,10,14,10,9.60
2015,04,10,14,11,9.50
2015,04,10,14,12,9.50
2015,04,10,14,13,9.50
2015,04,10,14,14,9.50
2015,04,10,14,15,9.50
2015,04,10,14,16,9.50
2015,04,10,14,17,9.50
2015,04,10,14,18,9.50
2015,04,10,14,19,9.50
2015,04,10,14,20,9.50
2015,04,10,14,21,9.50
2015,04,10,14,22,9.50
2015,04,10,14,23,9.50
2015,04,10,14,24,9.50
2015,04,10,14,25,9.50
2015,04,10,14,26,9.50
2015,04,10,14,27,9.50
2015,04,10,14,28,9.60
2015,04,10,14,29,9.60
2015,04,10,14,30,9.60
2015,04,10,14,31,9.60
2015,04,10,14,32,9.60
2015,04,10,14,33,9.60
2015,04,10,14,34,9.50
2015,04,10,14,35,9.60
2015,04,10,14,36,9.60
2015,04,10,14,37,9.60
2015,04,10,14,38,9.60
2015,04,10,14,39,9.70
2015,04,10,14,40,9.70
2015,04,10,14,41,9.70
2015,04,10,14,42,9.70
2015,04,10,14,43,9.70
2015,04,10,14,44,9.70
2015,04,10,14,45,9.70
2015,04,10,14,46,9.70
2015,04,10,14,47,9.70
2015,04,10,14,48,9.70
2015,04,10,14,49,9.60
2015,04,10,14,50,9.70
2015,04,10,14,51,9.70
2015,04,10,14,52,9.70
2015,04,10,14,53,9.70
2015,04,10,14,54,9.80
2015,04,10,14,55,9.80
2015,04,10,14,56,9.90
2015,04,10,14,57,9.90
2015,04,10,14,58,9.90
2015,04,10,14,59,10.00
2015,04,10,15,00,10.00
2015,04,10,15,01,10.00
2015,04,10,15,02,10.10
2015,04,10,15,03,10.10
2015,04,10,15,04,10.10
2015,04,10,15,05,10.10
2015,04,10,15,06,10.10
2015,04,10,15,07,10.10
2015,04,10,15,08,10.00
2015,04,10,15,09,10.00
2015,04,10,15,10,10.00
2015,04,10,15,11,10.00
2015,04,10,15,12,10.00
2015,04,10,15,13,9.90
2015,04,10,15,14,9.90
2015,04,10,15,15,9.90
2015,04,10,15,16,9.90
2015,04,10,15,17,9.90
2015,04,10,15,18,9.90
2015,04,10,15,19,10.00
2015,04,10,15,20,10.00
2015,04,10,15,21,10.10
2015,04,10,15,22,10.20
2015,04,10,15,23,10.20
2015,04,10,15,24,10.20
2015,04,10,15,25,10.30
2015,04,10,15,26,10.40
2015,04,10,15,27,10.40
2015,04,10,15,28,10.40
2015,04,10,15,29,10.40
2015,04,10,15,30,10.40
2015,04,10,15,31,10.40
2015,04,10,15,32,10.40
2015,04,10,15,33,10.40
2015,04,10,15,34,10.40
2015,04,10,15,35,10.40
2015,04,10,15,36,10.40
2015,04,10,15,37,10.40
2015,04,10,15,38,10.40
2015,04,10,15,39,10.40
2015,04,10,15,40,10.40
2015,04,10,15,41,10.40
2015,04,10,15,42,10.40
2015,04,10,15,43,10.40
2015,04,10,15,44,10.50
2015,04,10,15,45,10.60
2015,04,10,15,46,10.70
2015,04,10,15,47,10.80
2015,04,10,15,48,10.90
2015,04,10,15,49,10.90
2015,04,10,15,50,11.00
2015,04,10,15,51,11.00
2015,04,10,15,52,11.10
2015,04,10,15,53,11.10
2015,04,10,15,54,11.20
2015,04,10,15,55,11.20
2015,04,10,15,56,11.00
2015,04,10,15,57,10.90
2015,04,10,15,58,10.70
2015,04,10,15,59,10.60
2015,04,10,16,00,10.50
2015,04,10,16,01,10.40
2015,04,10,16,02,10.40
2015,04,10,16,03,10.40
2015,04,10,16,04,10.40
2015,04,10,16,05,10.40
2015,04,10,16,06,10.40
2015,04,10,16,07,10.40
2015,04,10,16,08,10.40
2015,04,10,16,09,10.40
2015,04,10,16,10,10.40
2015,04,10,16,11,10.40
2015,04,10,16,12,10.40
2015,04,10,16,13,10.40
2015,04,10,16,14,10.40
2015,04,10,16,15,10.30
2015,04,10,16,16,10.30
2015,04,10,16,17,10.30
2015,04,10,16,18,10.30
2015,04,10,16,19,10.30
2015,04,10,16,20,10.30
2015,04,10,16,21,10.30
2015,04,10,16,22,10.40
2015,04,10,16,23,10.40
2015,04,10,16,24,10.40
2015,04,10,16,25,10.50
2015,04,10,16,26,10.50
2015,04,10,16,27,10.60
2015,04,10,16,28,10.60
2015,04,10,16,29,10.60
2015,04,10,16,30,10.60
2015,04,10,16,31,10.70
2015,04,10,16,32,10.70
2015,04,10,16,33,10.80
2015,04,10,16,34,10.80
2015,04,10,16,35,10.90
2015,04,10,16,36,10.90
2015,04,10,16,37,10.90
2015,04,10,16,38,11.00
2015,04,10,16,39,11.00
2015,04,10,16,40,11.00
2015,04,10,16,41,11.00
2015,04,10,16,42,11.00
2015,04,10,16,43,11.00
2015,04,10,16,44,10.90
2015,04,10,16,45,10.90
2015,04,10,16,46,10.90
2015,04,10,16,47,10.90
2015,04,10,16,48,10.80
2015,04,10,16,49,10.80
2015,04,10,16,50,10.80
2015,04,10,16,51,10.80
2015,04,10,16,52,10.70
2015,04,10,16,53,10.70
2015,04,10,16,54,10.70
2015,04,10,16,55,10.60
2015,04,10,16,56,10.60
2015,04,10,16,57,10.60
2015,04,10,16,58,10.70
2015,04,10,16,59,10.60
2015,04,10,17,00,10.60
2015,04,10,17,01,10.60
2015,04,10,17,02,10.50
2015,04,10,17,03,10.50
2015,04,10,17,04,10.50
2015,04,10,17,05,10.50
2015,04,10,17,06,10.50
2015,04,10,17,07,10.50
2015,04,10,17,08,10.60
2015,04,10,17,09,10.60
2015,04,10,17,10,10.60
2015,04,10,17,11,10.60
2015,04,10,17,12,10.60
2015,04,10,17,13,10.60
2015,04,10,17,14,10.60
2015,04,10,17,15,10.60
2015,04,10,17,16,10.60
2015,04,10,17,17,10.60
2015,04,10,17,18,10.60
2015,04,10,17,19,10.50
2015,04,10,17,20,10.50
2015,04,10,17,21,10.50
2015,04,10,17,22,10.40
2015,04,10,17,23,10.40
2015,04,10,17,24,10.40
2015,04,10,17,25,10.40
2015,04,10,17,26,10.40
2015,04,10,17,27,10.40
2015,04,10,17,28,10.30
2015,04,10,17,29,10.30
2015,04,10,17,30,10.30
2015,04,10,17,31,10.30
2015,04,10,17,32,10.30
2015,04,10,17,33,10.30
2015,04,10,17,34,10.30
2015,04,10,17,35,10.30
2015,04,10,17,36,10.20
2015,04,10,17,37,10.20
2015,04,10,17,38,10.20
2015,04,10,17,39,10.20
2015,04,10,17,40,10.20
2015,04,10,17,41,10.20
2015,04,10,17,42,10.20
2015,04,10,17,43,10.20
2015,04,10,17,44,10.20
2015,04,10,17,45,10.20
2015,04,10,17,46,10.10
2015,04,10,17,47,10.10
2015,04,10,17,48,10.10
2015,04,10,17,49,10.10
2015,04,10,17,50,10.10
2015,04,10,17,51,10.10
2015,04,10,17,52,10.10
2015,04,10,17,53,10.10
2015,04,10,17,54,10.10
2015,04,10,17,55,10.00
2015,04,10,17,56,10.00
2015,04,10,17,57,10.00
2015,04,10,17,58,10.00
2015,04,10,17,59,10.10
2015,04,10,18,00,10.00
2015,04,10,18,01,10.00
2015,04,10,18,02,10.00
2015,04,10,18,03,10.00
2015,04,10,18,04,10.00
2015,04,10,18,05,10.00
2015,04,10,18,06,10.10
2015,04,10,18,07,10.10
2015,04,10,18,08,10.10
2015,04,10,18,09,10.10
2015,04,10,18,10,10.10
2015,04,10,18,11,10.10
2015,04,10,18,12,10.10
2015,04,10,18,13,10.10
2015,04,10,18,14,10.10
2015,04,10,18,15,10.10
2015,04,10,18,16,10.10
2015,04,10,18,17,10.00
2015,04,10,18,18,10.00
2015,04,10,18,19,10.00
2015,04,10,18,20,9.90
2015,04,10,18,21,10.00
2015,04,10,18,22,9.90
2015,04,10,18,23,9.90
2015,04,10,18,24,9.90
2015,04,10,18,25,9.90
2015,04,10,18,26,9.90
2015,04,10,18,27,9.90
2015,04,10,18,28,9.80
2015,04,10,18,29,9.80
2015,04,10,18,30,9.80
2015,04,10,18,31,9.80
2015,04,10,18,32,9.70
2015,04,10,18,33,9.70
2015,04,10,18,34,9.70